Forecast Directory
U.S. Alerts
El Dorado Weather Logo
U.S. Radar Loop Conditions Map

U.S. Color Satellite North America Color Infrared Animated Satellite Loop

Interactive Wx Map Live U.S. Google Map Radar Thumbnail Image

US Precipitation 1 day, 24 hour precipitation map

US Temperatures US Conditions Map

US Climate Data US Conditions Map


NOAA NWS Hourly Roundups by Site
Regional Weather Roundup for Sacramento, CA
Select Site:  

000
ASUS46 KSTO 011715
RWRCA

NORTHERN AND CENTRAL CA REGIONAL WEATHER ROUNDUP
NATIONAL WEATHER SERVICE SACRAMENTO CA
900 AM PST TUE DEC 01 2020

NOTE: FAIR INDICATES FEW OR NO CLOUDS BELOW 12,000 FEET WITH NO
SIGNIFICANT WEATHER AND/OR OBSTRUCTIONS TO VISIBILITY.

CAZ001-003-011800-
NORTHWEST AREA

CITY           SKY/WX    TMP DP  RH WIND       PRES   REMARKS
CRESCENT CITY  SUNNY     47  36  65 NE8       30.32F
UKIAH          SUNNY     42  37  82 CALM      30.27R
$$

CAZ006-505>513-011800-
BAY AREA

CITY           SKY/WX    TMP DP  RH WIND       PRES   REMARKS
SANTA ROSA     SUNNY     38  38 100 CALM      30.25R
SAN RAFAEL     N/A       MM  MM  MM MISG
NAPA           SUNNY     45  38  76 N3        30.25R
CONCORD        SUNNY     48  35  60 S3        30.24S
OAKLAND CITY   N/A       47  MM  MM MISG
OAKLAND        MOSUNNY   49  45  86 CALM      30.25F
SAN FRAN CITY  N/A       48  MM  97 MISG
SAN FRAN ARPT  FOG       47  47 100 CALM      30.24S VSB<1/4
LIVERMORE      SUNNY     49  36  61 CALM      30.23F
HAYWARD        FOG       46  45  96 CALM      30.24S VSB<1/4
SAN JOSE ARPT  FOG       44  43  96 CALM      30.24S VSB 1/8
$$
CAZ034-037-514>518-011800-
CENTRAL COAST

CITY           SKY/WX    TMP DP  RH WIND       PRES   REMARKS
WATSONVILLE    SUNNY     50  38  63 CALM      30.23R
SALINAS        SUNNY     47  32  56 SE6       30.21S
MONTEREY       SUNNY     48  44  86 W3        30.21R
SAN LUIS OBISP SUNNY     64  27  24 W5        30.14R
SANTA MARIA    SUNNY     68  21  16 NW6       30.13S
HALF MOON BAY  FAIR      48  46  93 CALM      30.24R FOG
$$
CAZ015-016-011800-
NORTHERN SACRAMENTO VALLEY

CITY           SKY/WX    TMP DP  RH WIND       PRES   REMARKS
REDDING        SUNNY     56  28  34 N16G22    30.23F
RED BLUFF      SUNNY     55  30  38 N7        30.24S
OROVILLE       SUNNY     44  36  73 S3        30.24S
$$
CAZ016>018-011800-
SOUTHERN SACRAMENTO VALLEY

CITY           SKY/WX    TMP DP  RH WIND       PRES   REMARKS
AUBURN         SUNNY     54  28  37 E3        30.21F
BEALE AFB      SUNNY     44  37  74 SE5       30.22S
LINCOLN        FAIR      41  36  81 CALM      30.24R
MARYSVILLE     SUNNY     43  35  73 E3        30.25R
SAC INTL ARPT  SUNNY     46  38  73 CALM      30.24R
MATHER AIRPORT SUNNY     41  37  87 SE5       30.23S
DOWNTOWN SAC   N/A       43  MM  MM MISG
SAC EXEC ARPT  SUNNY     46  40  79 E3        30.24S
VACAVILLE      SUNNY     53  38  56 CALM      30.25S
TRAVIS AFB     SUNNY     51  44  77 W3        30.24S
$$
CAZ019>021-011800-
SAN JOAQUIN VALLEY

CITY           SKY/WX    TMP DP  RH WIND       PRES   REMARKS
STOCKTON       SUNNY     46  34  62 CALM      30.25R
MODESTO        SUNNY     42  34  73 CALM      30.25R
MERCED         SUNNY     44  36  73 SE7       30.25S
LEMOORE        SUNNY     45  29  53 SW5       30.27S
FRESNO         SUNNY     48  32  53 W3        30.26S
HANFORD        SUNNY     43  34  70 SE3       30.27F HAZE
PORTERVILLE    SUNNY     48  32  53 CALM      30.27S
BAKERSFIELD    SUNNY     47  29  49 CALM      30.25F
$$
CAZ011-012-071-011800-
NORTHERN MOUNTAINS

CITY           SKY/WX    TMP DP  RH WIND       PRES   REMARKS
YREKA          SUNNY     28  25  88 SW3       30.44R
MOUNT SHASTA   SUNNY     33  28  81 CALM      30.36F
ALTURAS        SUNNY     23  21  92 E5        30.42R WCI  17
$$
CAZ011-012-071-011800-
SIERRA NEVADA MTNS

CITY           SKY/WX    TMP DP  RH WIND       PRES   REMARKS
BLUE CANYON    SUNNY     51  14  22 CALM      30.28R
TRUCKEE        SUNNY     25  19  80 CALM      30.38R
TAHOE VLY ARPT SUNNY     29  19  66 CALM      30.34S
MAMMOTH LAKES  FAIR      34   9  35 SE5       30.36F WCI  30
$$


 

View Past Reports for Sacramento, CA.

Products Courtesy of NOAA-NWS
NWS Information Parsing Script by Ken True at Saratoga Weather - Script by SE Lincoln Weather.



Contact Us | Mobile
Never base any life decisions on weather information from this site or anywhere over the Internet.
Site is dedicated to our Lord & Savior Jesus Christ | Random Quotes of Jesus

Copyright © 2020 El Dorado Weather, Inc. | Site Designed By:  El Dorado Weather